| time (UTC) | temp F | wind direction | speed MPH | gust MPH | rain 1hr in | rain 24hr in | rain mn in | humidity % | barometer mb |
| 20260510160321 | 87 | 223 | 5.0 | 6.0 | 0.00 | 0.00 | 0.00 | 62 | 1016.5 |
| 20260510155820 | 87 | 313 | 2.0 | 4.0 | 0.00 | 0.00 | 0.00 | 61 | 1016.4 |
| 20260510155318 | 87 | 238 | 6.0 | 7.0 | 0.00 | 0.00 | 0.00 | 61 | 1016.3 |
| 20260510154813 | 87 | 322 | 1.0 | 2.0 | 0.00 | 0.00 | 0.00 | 63 | 1016.3 |
| 20260510154309 | 86 | 214 | 2.0 | 4.0 | 0.00 | 0.00 | 0.00 | 62 | 1016.3 |
| 20260510153803 | 87 | 267 | 2.0 | 3.0 | 0.00 | 0.00 | 0.00 | 63 | 1016.3 |
| 20260510153300 | 86 | 321 | 0.0 | 4.0 | 0.00 | 0.00 | 0.00 | 64 | 1016.5 |
| 20260510152757 | 86 | 141 | 3.0 | 4.0 | 0.00 | 0.00 | 0.00 | 64 | 1016.4 |
| 20260510152253 | 86 | 36 | 2.0 | 2.0 | 0.00 | 0.00 | 0.00 | 64 | 1016.5 |
| 20260510151749 | 86 | 338 | 1.0 | 4.0 | 0.00 | 0.00 | 0.00 | 63 | 1016.3 |
| 20260510151248 | 86 | 274 | 2.0 | 6.0 | 0.00 | 0.00 | 0.00 | 63 | 1016.6 |
| 20260510150743 | 86 | 308 | 2.0 | 4.0 | 0.00 | 0.00 | 0.00 | 62 | 1016.4 |
| 20260510150240 | 87 | 257 | 5.0 | 7.0 | 0.00 | 0.00 | 0.00 | 61 | 1016.4 |
| 20260510145736 | 86 | 249 | 1.0 | 4.0 | 0.00 | 0.00 | 0.00 | 63 | 1016.3 |
| 20260510145233 | 86 | 145 | 2.0 | 6.0 | 0.00 | 0.00 | 0.00 | 63 | 1016.2 |
| 20260510144728 | 86 | 237 | 3.0 | 4.0 | 0.00 | 0.00 | 0.00 | 65 | 1016.3 |
| 20260510144226 | 85 | 158 | 2.0 | 3.0 | 0.00 | 0.00 | 0.00 | 67 | 1016.2 |
| 20260510143720 | 85 | 150 | 1.0 | 3.0 | 0.00 | 0.00 | 0.00 | 66 | 1016.2 |
| 20260510143217 | 85 | 170 | 2.0 | 4.0 | 0.00 | 0.00 | 0.00 | 66 | 1016.4 |
| 20260510142713 | 85 | 348 | 2.0 | 2.0 | 0.00 | 0.00 | 0.00 | 69 | 1016.4 |
| 20260510142210 | 84 | 339 | 0.0 | 2.0 | 0.00 | 0.00 | 0.00 | 68 | 1016.3 |
| 20260510141707 | 83 | 234 | 2.0 | 6.0 | 0.00 | 0.00 | 0.00 | 69 | 1016.3 |
| 20260510141206 | 83 | 270 | 4.0 | 7.0 | 0.00 | 0.00 | 0.00 | 69 | 1016.5 |
| 20260510140701 | 83 | 150 | 4.0 | 4.0 | 0.00 | 0.00 | 0.00 | 71 | 1016.3 |
| 20260510140201 | 83 | 307 | 2.0 | 4.0 | 0.00 | 0.00 | 0.00 | 72 | 1016.2 |
| 20260510135656 | 83 | 338 | 1.0 | 3.0 | 0.00 | 0.00 | 0.00 | 73 | 1016.1 |
| 20260510135152 | 82 | 135 | 4.0 | 4.0 | 0.00 | 0.00 | 0.00 | 75 | 1016.2 |
| 20260510134649 | 82 | 312 | 1.0 | 3.0 | 0.00 | 0.00 | 0.00 | 75 | 1016.1 |
| 20260510134147 | 82 | 6 | 2.0 | 3.0 | 0.00 | 0.00 | 0.00 | 76 | 1016.0 |
| 20260510133643 | 82 | 50 | 1.0 | 2.0 | 0.00 | 0.00 | 0.00 | 76 | 1015.9 |
| 20260510133138 | 81 | 135 | 2.0 | 3.0 | 0.00 | 0.00 | 0.00 | 76 | 1016.0 |
| 20260510132635 | 81 | 150 | 2.0 | 3.0 | 0.00 | 0.00 | 0.00 | 77 | 1015.9 |
| 20260510132132 | 81 | 353 | 2.0 | 3.0 | 0.00 | 0.00 | 0.00 | 77 | 1015.9 |
| 20260510131630 | 80 | 330 | 0.0 | 1.0 | 0.00 | 0.00 | 0.00 | 79 | 1015.8 |
| 20260510131127 | 80 | 300 | 2.0 | 3.0 | 0.00 | 0.00 | 0.00 | 79 | 1015.8 |
| 20260510130623 | 80 | 349 | 0.0 | 2.0 | 0.00 | 0.00 | 0.00 | 80 | 1015.7 |
| 20260510130121 | 80 | 339 | 0.0 | 1.0 | 0.00 | 0.00 | 0.00 | 81 | 1015.8 |
| 20260510125617 | 80 | 311 | 1.0 | 2.0 | 0.00 | 0.00 | 0.00 | 81 | 1015.5 |
| 20260510125114 | 80 | 352 | 1.0 | 1.0 | 0.00 | 0.00 | 0.00 | 81 | 1015.5 |
| 20260510124610 | 79 | 343 | 0.0 | 0.0 | 0.00 | 0.00 | 0.00 | 82 | 1015.6 |
| 20260510124107 | 79 | 351 | 0.0 | 1.0 | 0.00 | 0.00 | 0.00 | 83 | 1015.5 |
| 20260510123602 | 79 | 343 | 2.0 | 2.0 | 0.00 | 0.00 | 0.00 | 83 | 1015.6 |
| 20260510123059 | 79 | 5 | 1.0 | 2.0 | 0.00 | 0.00 | 0.00 | 83 | 1015.4 |
| 20260510122554 | 79 | 312 | 1.0 | 2.0 | 0.00 | 0.00 | 0.00 | 83 | 1015.4 |
| 20260510122051 | 79 | 340 | 1.0 | 1.0 | 0.00 | 0.00 | 0.00 | 84 | 1015.4 |
| 20260510121548 | 78 | 343 | 0.0 | 0.0 | 0.00 | 0.00 | 0.00 | 87 | 1015.2 |
| 20260510121045 | 77 | 347 | 0.0 | 0.0 | 0.00 | 0.00 | 0.00 | 88 | 1015.1 |
| 20260510120543 | 77 | 341 | 0.0 | 0.0 | 0.00 | 0.00 | 0.00 | 89 | 1015.1 |
| 20260510120038 | 77 | 346 | 0.0 | 0.0 | 0.00 | 0.00 | 0.00 | 90 | 1015.0 |
| 20260510115535 | 76 | 352 | 0.0 | 0.0 | 0.00 | 0.00 | 0.00 | 90 | 1014.8 |
| 20260510115032 | 76 | 346 | 0.0 | 1.0 | 0.00 | 0.00 | 0.00 | 90 | 1015.1 |
| 20260510114527 | 76 | 340 | 0.0 | 1.0 | 0.00 | 0.00 | 0.00 | 91 | 1015.0 |
| 20260510114024 | 76 | 351 | 0.0 | 2.0 | 0.00 | 0.00 | 0.00 | 91 | 1014.9 |
| 20260510113519 | 75 | 323 | 0.0 | 2.0 | 0.00 | 0.00 | 0.00 | 91 | 1015.0 |
| 20260510113017 | 75 | 307 | 1.0 | 1.0 | 0.00 | 0.00 | 0.00 | 92 | 1014.7 |
| 20260510112514 | 75 | 298 | 1.0 | 1.0 | 0.00 | 0.00 | 0.00 | 92 | 1014.9 |
| 20260510112010 | 75 | 332 | 0.0 | 1.0 | 0.00 | 0.00 | 0.00 | 92 | 1014.7 |
| 20260510111507 | 75 | 284 | 2.0 | 2.0 | 0.00 | 0.00 | 0.00 | 93 | 1014.6 |
| 20260510111003 | 75 | 352 | 0.0 | 2.0 | 0.00 | 0.00 | 0.00 | 93 | 1014.6 |
| 20260510110459 | 75 | 315 | 1.0 | 2.0 | 0.00 | 0.00 | 0.00 | 93 | 1014.3 |
| 20260510105955 | 74 | 341 | 0.0 | 1.0 | 0.00 | 0.00 | 0.00 | 94 | 1014.7 |
| 20260510105450 | 74 | 314 | 1.0 | 2.0 | 0.00 | 0.00 | 0.00 | 94 | 1014.3 |
| 20260510104946 | 74 | 315 | 1.0 | 1.0 | 0.00 | 0.00 | 0.00 | 94 | 1014.0 |
| 20260510104442 | 74 | 315 | 1.0 | 2.0 | 0.00 | 0.00 | 0.00 | 94 | 1014.1 |
| 20260510103939 | 74 | 350 | 0.0 | 0.0 | 0.00 | 0.00 | 0.00 | 93 | 1013.8 |
| 20260510103437 | 74 | 354 | 0.0 | 0.0 | 0.00 | 0.00 | 0.00 | 94 | 1013.8 |
| 20260510102932 | 74 | 6 | 0.0 | 1.0 | 0.00 | 0.00 | 0.00 | 94 | 1013.6 |
| 20260510102428 | 74 | 343 | 0.0 | 0.0 | 0.00 | 0.00 | 0.00 | 94 | 1013.6 |
| 20260510101925 | 74 | 325 | 1.0 | 1.0 | 0.00 | 0.00 | 0.00 | 94 | 1013.6 |
| 20260510101423 | 74 | 336 | 1.0 | 1.0 | 0.00 | 0.00 | 0.00 | 94 | 1013.4 |
| 20260510100921 | 74 | 306 | 1.0 | 1.0 | 0.00 | 0.00 | 0.00 | 94 | 1013.5 |
| 20260510100417 | 75 | 310 | 1.0 | 2.0 | 0.00 | 0.00 | 0.00 | 94 | 1013.7 |
| 20260510095913 | 75 | 348 | 0.0 | 2.0 | 0.00 | 0.00 | 0.00 | 95 | 1013.4 |
| 20260510095408 | 74 | 324 | 1.0 | 2.0 | 0.00 | 0.00 | 0.00 | 95 | 1013.4 |
| 20260510094908 | 74 | 355 | 0.0 | 1.0 | 0.00 | 0.00 | 0.00 | 95 | 1013.5 |
| 20260510094403 | 74 | 315 | 1.0 | 2.0 | 0.00 | 0.00 | 0.00 | 96 | 1013.5 |
| 20260510093859 | 74 | 357 | 1.0 | 2.0 | 0.00 | 0.00 | 0.00 | 96 | 1013.3 |
| 20260510093350 | 74 | 342 | 0.0 | 0.0 | 0.00 | 0.00 | 0.00 | 96 | 1013.5 |
| 20260510092846 | 74 | 350 | 0.0 | 0.0 | 0.00 | 0.00 | 0.00 | 96 | 1013.2 |
| 20260510092343 | 74 | 357 | 0.0 | 0.0 | 0.00 | 0.00 | 0.00 | 96 | 1013.1 |
| 20260510091838 | 74 | 13 | 0.0 | 0.0 | 0.00 | 0.00 | 0.00 | 96 | 1013.4 |
| 20260510091336 | 74 | 11 | 0.0 | 0.0 | 0.00 | 0.00 | 0.00 | 96 | 1013.6 |
| 20260510090832 | 74 | 346 | 0.0 | 0.0 | 0.00 | 0.00 | 0.00 | 96 | 1013.3 |
| 20260510090328 | 74 | 352 | 0.0 | 0.0 | 0.00 | 0.00 | 0.00 | 96 | 1013.2 |
| 20260510085824 | 74 | 347 | 0.0 | 0.0 | 0.00 | 0.00 | 0.00 | 96 | 1013.1 |
| 20260510085324 | 74 | 345 | 0.0 | 0.0 | 0.00 | 0.00 | 0.00 | 96 | 1013.3 |
| 20260510084820 | 74 | 1 | 0.0 | 0.0 | 0.00 | 0.00 | 0.00 | 96 | 1013.1 |
| 20260510084317 | 73 | 1 | 0.0 | 0.0 | 0.00 | 0.00 | 0.00 | 96 | 1013.2 |
| 20260510083814 | 73 | 355 | 0.0 | 0.0 | 0.00 | 0.00 | 0.00 | 96 | 1013.4 |
| 20260510083311 | 73 | 352 | 0.0 | 0.0 | 0.00 | 0.00 | 0.00 | 96 | 1013.0 |
| 20260510082806 | 73 | 352 | 0.0 | 0.0 | 0.00 | 0.00 | 0.00 | 96 | 1013.2 |
| 20260510082306 | 73 | 349 | 0.0 | 0.0 | 0.00 | 0.00 | 0.00 | 96 | 1013.3 |
| 20260510081802 | 73 | 354 | 0.0 | 0.0 | 0.00 | 0.00 | 0.00 | 96 | 1013.5 |
| 20260510081258 | 73 | 355 | 0.0 | 0.0 | 0.00 | 0.00 | 0.00 | 96 | 1013.3 |
| 20260510080754 | 73 | 355 | 0.0 | 0.0 | 0.00 | 0.00 | 0.00 | 96 | 1013.3 |
| 20260510080249 | 73 | 350 | 0.0 | 0.0 | 0.00 | 0.00 | 0.00 | 96 | 1013.1 |
| 20260510075747 | 73 | 349 | 0.0 | 0.0 | 0.00 | 0.00 | 0.00 | 96 | 1013.4 |
| 20260510075244 | 73 | 355 | 0.0 | 0.0 | 0.00 | 0.00 | 0.00 | 96 | 1013.4 |
| 20260510074741 | 73 | 352 | 0.0 | 0.0 | 0.00 | 0.00 | 0.00 | 95 | 1013.2 |
| 20260510074237 | 73 | 354 | 0.0 | 0.0 | 0.00 | 0.00 | 0.00 | 95 | 1013.4 |
| 20260510073733 | 73 | 354 | 0.0 | 0.0 | 0.00 | 0.00 | 0.00 | 95 | 1013.4 |
| 20260510073230 | 73 | 355 | 0.0 | 0.0 | 0.00 | 0.00 | 0.00 | 95 | 1013.4 |
| 20260510072725 | 73 | 335 | 0.0 | 0.0 | 0.00 | 0.00 | 0.00 | 95 | 1013.6 |
| 20260510072222 | 73 | 349 | 0.0 | 0.0 | 0.00 | 0.00 | 0.00 | 95 | 1013.6 |
| 20260510071719 | 73 | 346 | 0.0 | 0.0 | 0.00 | 0.00 | 0.00 | 95 | 1013.5 |
| 20260510071216 | 73 | 356 | 0.0 | 0.0 | 0.00 | 0.00 | 0.00 | 95 | 1013.5 |
| 20260510070714 | 73 | 356 | 0.0 | 0.0 | 0.00 | 0.00 | 0.00 | 95 | 1013.8 |
| 20260510070211 | 73 | 354 | 0.0 | 0.0 | 0.00 | 0.00 | 0.00 | 95 | 1013.9 |
| 20260510065706 | 73 | 0 | 0.0 | 0.0 | 0.00 | 0.00 | 0.00 | 95 | 1013.8 |
| 20260510065202 | 73 | 348 | 0.0 | 0.0 | 0.00 | 0.00 | 0.00 | 95 | 1014.0 |
| 20260510064659 | 73 | 352 | 0.0 | 0.0 | 0.00 | 0.00 | 0.00 | 95 | 1013.7 |
| 20260510064156 | 73 | 348 | 0.0 | 0.0 | 0.00 | 0.00 | 0.00 | 95 | 1013.9 |
| 20260510063653 | 73 | 351 | 0.0 | 0.0 | 0.00 | 0.00 | 0.00 | 95 | 1013.8 |
| 20260510063149 | 73 | 351 | 0.0 | 0.0 | 0.00 | 0.00 | 0.00 | 95 | 1014.0 |
| 20260510062646 | 73 | 351 | 0.0 | 0.0 | 0.00 | 0.00 | 0.00 | 95 | 1013.9 |
| 20260510062142 | 73 | 354 | 0.0 | 0.0 | 0.00 | 0.00 | 0.00 | 95 | 1013.9 |
| 20260510061637 | 73 | 348 | 0.0 | 0.0 | 0.00 | 0.00 | 0.00 | 94 | 1013.9 |
| 20260510061135 | 73 | 348 | 0.0 | 0.0 | 0.00 | 0.00 | 0.00 | 94 | 1013.9 |
| 20260510060631 | 73 | 353 | 0.0 | 0.0 | 0.00 | 0.00 | 0.00 | 94 | 1013.9 |
| 20260510060127 | 73 | 356 | 0.0 | 0.0 | 0.00 | 0.00 | 0.00 | 94 | 1014.0 |
| 20260510055624 | 73 | 353 | 0.0 | 0.0 | 0.00 | 0.00 | 0.00 | 94 | 1014.0 |
| 20260510055122 | 73 | 355 | 0.0 | 0.0 | 0.00 | 0.00 | 0.00 | 94 | 1014.0 |
| 20260510054617 | 73 | 357 | 0.0 | 0.0 | 0.00 | 0.00 | 0.00 | 94 | 1014.0 |
| 20260510054113 | 73 | 347 | 0.0 | 0.0 | 0.00 | 0.00 | 0.00 | 94 | 1014.1 |
| 20260510053612 | 73 | 348 | 0.0 | 0.0 | 0.00 | 0.00 | 0.00 | 94 | 1014.4 |
| 20260510053109 | 73 | 349 | 0.0 | 0.0 | 0.00 | 0.00 | 0.00 | 94 | 1014.5 |
| 20260510052605 | 73 | 349 | 0.0 | 0.0 | 0.00 | 0.00 | 0.00 | 94 | 1014.4 |
| 20260510052102 | 73 | 349 | 0.0 | 0.0 | 0.00 | 0.00 | 0.00 | 94 | 1014.5 |
| 20260510051557 | 73 | 358 | 0.0 | 0.0 | 0.00 | 0.00 | 0.00 | 94 | 1014.4 |
| 20260510051054 | 73 | 0 | 0.0 | 0.0 | 0.00 | 0.00 | 0.00 | 94 | 1014.5 |
| 20260510050551 | 73 | 359 | 0.0 | 0.0 | 0.00 | 0.00 | 0.00 | 94 | 1014.5 |
| 20260510050048 | 73 | 356 | 0.0 | 0.0 | 0.00 | 0.00 | 0.00 | 94 | 1014.9 |
| 20260510045540 | 73 | 359 | 0.0 | 0.0 | 0.00 | 0.00 | 0.00 | 93 | 1015.0 |
| 20260510045036 | 73 | 0 | 0.0 | 0.0 | 0.00 | 0.00 | 0.00 | 93 | 1015.0 |
| 20260510044533 | 73 | 344 | 0.0 | 0.0 | 0.00 | 0.00 | 0.00 | 93 | 1015.0 |
| 20260510044031 | 73 | 352 | 0.0 | 0.0 | 0.00 | 0.00 | 0.00 | 93 | 1015.1 |
| 20260510043526 | 73 | 356 | 0.0 | 0.0 | 0.00 | 0.00 | 0.00 | 93 | 1014.9 |
| 20260510043021 | 73 | 348 | 0.0 | 0.0 | 0.00 | 0.00 | 0.00 | 93 | 1015.0 |
| 20260510042516 | 73 | 341 | 0.0 | 0.0 | 0.00 | 0.00 | 0.00 | 92 | 1015.1 |
| 20260510042015 | 73 | 351 | 0.0 | 0.0 | 0.00 | 0.00 | 0.00 | 92 | 1015.0 |
| 20260510041514 | 73 | 350 | 0.0 | 0.0 | 0.00 | 0.00 | 0.00 | 92 | 1014.9 |
| 20260510041011 | 73 | 349 | 0.0 | 0.0 | 0.00 | 0.00 | 0.00 | 92 | 1014.7 |
| 20260510040507 | 73 | 350 | 0.0 | 0.0 | 0.00 | 0.00 | 0.00 | 92 | 1014.7 |
| 20260510040003 | 73 | 354 | 0.0 | 0.0 | 0.00 | 0.01 | 0.01 | 91 | 1014.9 |
| 20260510035500 | 73 | 354 | 0.0 | 0.0 | 0.00 | 0.01 | 0.01 | 91 | 1014.9 |
| 20260510034959 | 74 | 354 | 0.0 | 0.0 | 0.00 | 0.01 | 0.01 | 91 | 1014.6 |
| 20260510034458 | 73 | 352 | 0.0 | 0.0 | 0.00 | 0.01 | 0.01 | 91 | 1014.7 |
| 20260510033954 | 74 | 356 | 0.0 | 0.0 | 0.00 | 0.01 | 0.01 | 90 | 1014.7 |
| 20260510033450 | 74 | 359 | 0.0 | 0.0 | 0.00 | 0.01 | 0.01 | 90 | 1014.5 |
| 20260510032948 | 74 | 353 | 0.0 | 0.0 | 0.00 | 0.01 | 0.01 | 89 | 1014.6 |
| 20260510032445 | 74 | 347 | 0.0 | 0.0 | 0.00 | 0.01 | 0.01 | 89 | 1014.9 |
| 20260510031944 | 74 | 346 | 0.0 | 0.0 | 0.00 | 0.01 | 0.01 | 89 | 1014.8 |
| 20260510031440 | 74 | 352 | 0.0 | 0.0 | 0.00 | 0.01 | 0.01 | 88 | 1014.7 |
| 20260510030936 | 74 | 355 | 0.0 | 0.0 | 0.00 | 0.01 | 0.01 | 88 | 1014.8 |
| 20260510030431 | 75 | 357 | 0.0 | 0.0 | 0.00 | 0.01 | 0.01 | 88 | 1014.7 |
| 20260510025930 | 75 | 352 | 0.0 | 0.0 | 0.00 | 0.01 | 0.01 | 87 | 1014.7 |
| 20260510025427 | 75 | 348 | 0.0 | 0.0 | 0.00 | 0.01 | 0.01 | 87 | 1014.9 |
| 20260510024924 | 75 | 351 | 0.0 | 0.0 | 0.00 | 0.01 | 0.01 | 87 | 1014.6 |
| 20260510024420 | 75 | 348 | 0.0 | 0.0 | 0.00 | 0.01 | 0.01 | 87 | 1014.7 |
| 20260510023916 | 75 | 5 | 0.0 | 1.0 | 0.00 | 0.01 | 0.01 | 87 | 1014.6 |
| 20260510023413 | 75 | 344 | 0.0 | 0.0 | 0.00 | 0.01 | 0.01 | 87 | 1014.5 |
| 20260510022910 | 75 | 354 | 0.0 | 0.0 | 0.00 | 0.01 | 0.01 | 87 | 1014.6 |
| 20260510022409 | 75 | 349 | 0.0 | 0.0 | 0.00 | 0.01 | 0.01 | 88 | 1014.6 |
| 20260510021908 | 75 | 354 | 0.0 | 0.0 | 0.00 | 0.01 | 0.01 | 88 | 1014.4 |
| 20260510021407 | 75 | 353 | 0.0 | 1.0 | 0.00 | 0.01 | 0.01 | 88 | 1014.4 |
| 20260510020903 | 75 | 356 | 0.0 | 0.0 | 0.00 | 0.01 | 0.01 | 88 | 1014.2 |
| 20260510020358 | 75 | 356 | 0.0 | 0.0 | 0.00 | 0.01 | 0.01 | 89 | 1014.3 |
| 20260510015854 | 75 | 357 | 0.0 | 0.0 | 0.00 | 0.01 | 0.01 | 89 | 1014.3 |
| 20260510015350 | 75 | 354 | 0.0 | 0.0 | 0.00 | 0.01 | 0.01 | 89 | 1014.5 |
| 20260510014845 | 75 | 355 | 0.0 | 0.0 | 0.00 | 0.01 | 0.01 | 89 | 1014.5 |
| 20260510014342 | 75 | 353 | 0.0 | 0.0 | 0.00 | 0.01 | 0.01 | 89 | 1014.2 |
| 20260510013838 | 76 | 354 | 0.0 | 0.0 | 0.00 | 0.01 | 0.01 | 89 | 1014.4 |
| 20260510013334 | 76 | 351 | 0.0 | 0.0 | 0.00 | 0.01 | 0.01 | 88 | 1014.4 |
| 20260510012829 | 75 | 352 | 0.0 | 0.0 | 0.00 | 0.01 | 0.01 | 88 | 1014.3 |
| 20260510012329 | 75 | 346 | 0.0 | 0.0 | 0.00 | 0.01 | 0.01 | 87 | 1014.3 |
| 20260510011824 | 75 | 348 | 0.0 | 0.0 | 0.00 | 0.01 | 0.01 | 87 | 1014.1 |
| 20260510011320 | 75 | 344 | 0.0 | 0.0 | 0.00 | 0.01 | 0.01 | 87 | 1014.0 |
| 20260510010817 | 75 | 350 | 0.0 | 2.0 | 0.00 | 0.01 | 0.01 | 87 | 1013.8 |
| 20260510010314 | 76 | 346 | 0.0 | 0.0 | 0.00 | 0.01 | 0.01 | 87 | 1013.7 |
| 20260510005811 | 76 | 356 | 0.0 | 1.0 | 0.00 | 0.01 | 0.01 | 88 | 1013.6 |
| 20260510005307 | 76 | 354 | 0.0 | 0.0 | 0.00 | 0.01 | 0.01 | 87 | 1013.8 |
| 20260510004805 | 76 | 347 | 0.0 | 0.0 | 0.00 | 0.01 | 0.01 | 87 | 1013.7 |
| 20260510004302 | 77 | 348 | 0.0 | 2.0 | 0.00 | 0.01 | 0.01 | 86 | 1013.6 |
| 20260510003759 | 77 | 351 | 0.0 | 0.0 | 0.00 | 0.01 | 0.01 | 84 | 1013.2 |
| 20260510003256 | 78 | 353 | 0.0 | 1.0 | 0.00 | 0.01 | 0.01 | 83 | 1013.4 |
| 20260510002754 | 78 | 357 | 0.0 | 0.0 | 0.00 | 0.01 | 0.01 | 82 | 1013.4 |
| 20260510002253 | 78 | 353 | 1.0 | 1.0 | 0.00 | 0.01 | 0.01 | 80 | 1013.6 |
| 20260510001749 | 78 | 343 | 1.0 | 2.0 | 0.00 | 0.01 | 0.01 | 79 | 1013.4 |
| 20260510001247 | 78 | 20 | 1.0 | 1.0 | 0.00 | 0.01 | 0.01 | 79 | 1013.5 |
| 20260510000743 | 78 | 13 | 2.0 | 3.0 | 0.00 | 0.01 | 0.01 | 78 | 1013.4 |
| 20260510000241 | 78 | 3 | 2.0 | 3.0 | 0.00 | 0.01 | 0.01 | 78 | 1013.1 |
| 20260509235737 | 78 | 351 | 0.0 | 1.0 | 0.00 | 0.01 | 0.01 | 78 | 1013.4 |
| 20260509235233 | 79 | 314 | 1.0 | 2.0 | 0.00 | 0.01 | 0.01 | 78 | 1013.0 |
| 20260509234729 | 79 | 1 | 3.0 | 3.0 | 0.00 | 0.01 | 0.01 | 78 | 1013.1 |
| 20260509234227 | 79 | 346 | 0.0 | 2.0 | 0.00 | 0.01 | 0.01 | 77 | 1013.1 |
| 20260509233725 | 79 | 355 | 1.0 | 7.0 | 0.00 | 0.01 | 0.01 | 77 | 1012.7 |
| 20260509233222 | 79 | 354 | 2.0 | 6.0 | 0.00 | 0.01 | 0.01 | 76 | 1012.7 |
| 20260509232718 | 79 | 338 | 1.0 | 2.0 | 0.00 | 0.01 | 0.01 | 76 | 1012.7 |
| 20260509232215 | 79 | 349 | 0.0 | 3.0 | 0.00 | 0.01 | 0.01 | 76 | 1012.6 |
| 20260509231712 | 80 | 316 | 1.0 | 3.0 | 0.00 | 0.01 | 0.01 | 77 | 1012.5 |
| 20260509231209 | 80 | 30 | 2.0 | 3.0 | 0.00 | 0.01 | 0.01 | 76 | 1012.7 |
| 20260509230707 | 80 | 330 | 1.0 | 4.0 | 0.00 | 0.01 | 0.01 | 75 | 1012.5 |
| 20260509230203 | 81 | 10 | 4.0 | 7.0 | 0.00 | 0.01 | 0.01 | 74 | 1012.2 |
| 20260509225659 | 81 | 346 | 2.0 | 3.0 | 0.00 | 0.01 | 0.01 | 72 | 1012.1 |
| 20260509225154 | 82 | 349 | 1.0 | 3.0 | 0.00 | 0.01 | 0.01 | 71 | 1012.2 |
| 20260509224650 | 82 | 320 | 1.0 | 2.0 | 0.00 | 0.01 | 0.01 | 71 | 1011.7 |
| 20260509224147 | 82 | 328 | 2.0 | 4.0 | 0.00 | 0.01 | 0.01 | 71 | 1011.8 |
| 20260509223644 | 82 | 336 | 2.0 | 6.0 | 0.00 | 0.01 | 0.01 | 70 | 1011.9 |
| 20260509223141 | 83 | 341 | 1.0 | 4.0 | 0.00 | 0.01 | 0.01 | 69 | 1011.8 |
| 20260509222638 | 83 | 187 | 1.0 | 3.0 | 0.00 | 0.01 | 0.01 | 69 | 1011.5 |
| 20260509222133 | 84 | 8 | 1.0 | 3.0 | 0.00 | 0.01 | 0.01 | 68 | 1011.6 |
| 20260509221630 | 84 | 345 | 3.0 | 6.0 | 0.00 | 0.01 | 0.01 | 66 | 1011.6 |
| 20260509221125 | 85 | 325 | 2.0 | 4.0 | 0.00 | 0.01 | 0.01 | 66 | 1011.4 |
| 20260509220622 | 85 | 349 | 0.0 | 3.0 | 0.00 | 0.01 | 0.01 | 66 | 1011.5 |
| 20260509220118 | 85 | 4 | 1.0 | 3.0 | 0.00 | 0.01 | 0.01 | 65 | 1011.5 |
| 20260509215614 | 85 | 47 | 4.0 | 4.0 | 0.00 | 0.01 | 0.01 | 65 | 1011.3 |
| 20260509215111 | 85 | 285 | 2.0 | 4.0 | 0.00 | 0.01 | 0.01 | 65 | 1011.4 |
| 20260509214608 | 86 | 286 | 4.0 | 4.0 | 0.00 | 0.01 | 0.01 | 64 | 1011.4 |
| 20260509214105 | 86 | 326 | 0.0 | 1.0 | 0.00 | 0.01 | 0.01 | 63 | 1011.1 |
| 20260509213601 | 87 | 73 | 3.0 | 4.0 | 0.00 | 0.01 | 0.01 | 62 | 1011.3 |
| 20260509213058 | 88 | 0 | 4.0 | 7.0 | 0.00 | 0.01 | 0.01 | 60 | 1011.2 |
| 20260509212555 | 88 | 350 | 1.0 | 4.0 | 0.00 | 0.01 | 0.01 | 60 | 1011.3 |
| 20260509212052 | 88 | 320 | 1.0 | 3.0 | 0.00 | 0.01 | 0.01 | 60 | 1011.2 |
| 20260509211547 | 88 | 350 | 2.0 | 3.0 | 0.00 | 0.01 | 0.01 | 60 | 1011.1 |
| 20260509211044 | 88 | 261 | 2.0 | 3.0 | 0.00 | 0.01 | 0.01 | 59 | 1011.1 |
| 20260509210542 | 88 | 81 | 2.0 | 7.0 | 0.00 | 0.01 | 0.01 | 59 | 1011.3 |
| 20260509210038 | 89 | 277 | 4.0 | 16.0 | 0.00 | 0.01 | 0.01 | 56 | 1011.2 |
| 20260509205537 | 89 | 295 | 4.0 | 10.0 | 0.00 | 0.01 | 0.01 | 55 | 1011.0 |
| 20260509205033 | 90 | 10 | 2.0 | 7.0 | 0.00 | 0.01 | 0.01 | 53 | 1011.0 |
| 20260509204530 | 91 | 257 | 2.0 | 7.0 | 0.00 | 0.01 | 0.01 | 51 | 1010.6 |
| 20260509204026 | 92 | 345 | 1.0 | 1.0 | 0.00 | 0.01 | 0.01 | 59 | 1010.5 |
| 20260509203522 | 91 | 357 | 0.0 | 1.0 | 0.00 | 0.01 | 0.01 | 48 | 1010.4 |
| 20260509203021 | 90 | 341 | 0.0 | 1.0 | 0.00 | 0.01 | 0.01 | 58 | 1010.5 |
| 20260509202521 | 89 | 3 | 0.0 | 1.0 | 0.00 | 0.01 | 0.01 | 57 | 1010.3 |
| 20260509202017 | 88 | 352 | 0.0 | 0.0 | 0.00 | 0.01 | 0.01 | 57 | 1010.7 |
| 20260509201512 | 87 | 9 | 1.0 | 1.0 | 0.00 | 0.01 | 0.01 | 64 | 1010.5 |
| 20260509201010 | 86 | 17 | 1.0 | 1.0 | 0.00 | 0.01 | 0.01 | 61 | 1010.6 |
| 20260509200509 | 86 | 141 | 3.0 | 6.0 | 0.00 | 0.01 | 0.01 | 62 | 1010.7 |
| 20260509200006 | 90 | 152 | 9.0 | 19.0 | 0.00 | 0.01 | 0.01 | 56 | 1010.9 |
| 20260509195502 | 91 | 284 | 3.0 | 6.0 | 0.00 | 0.01 | 0.01 | 49 | 1011.0 |
| 20260509195001 | 92 | 339 | 1.0 | 4.0 | 0.00 | 0.01 | 0.01 | 48 | 1010.7 |
| 20260509194457 | 92 | 306 | 2.0 | 3.0 | 0.00 | 0.01 | 0.01 | 46 | 1010.7 |
| 20260509193955 | 92 | 327 | 2.0 | 3.0 | 0.00 | 0.01 | 0.01 | 47 | 1010.6 |
| 20260509193454 | 92 | 335 | 2.0 | 4.0 | 0.00 | 0.01 | 0.01 | 47 | 1010.9 |
| 20260509192951 | 91 | 284 | 3.0 | 3.0 | 0.00 | 0.01 | 0.01 | 47 | 1010.9 |
| 20260509192448 | 91 | 212 | 3.0 | 4.0 | 0.00 | 0.01 | 0.01 | 48 | 1011.2 |
| 20260509191942 | 91 | 280 | 3.0 | 4.0 | 0.00 | 0.01 | 0.01 | 46 | 1011.2 |
| 20260509191438 | 91 | 296 | 2.0 | 3.0 | 0.00 | 0.01 | 0.01 | 47 | 1011.3 |
| 20260509190934 | 91 | 209 | 4.0 | 7.0 | 0.00 | 0.01 | 0.01 | 47 | 1011.5 |
| 20260509190431 | 92 | 147 | 1.0 | 7.0 | 0.00 | 0.01 | 0.01 | 47 | 1011.2 |
| 20260509185929 | 92 | 281 | 2.0 | 7.0 | 0.00 | 0.01 | 0.01 | 46 | 1011.4 |
| 20260509185426 | 92 | 344 | 1.0 | 7.0 | 0.00 | 0.01 | 0.01 | 45 | 1011.3 |
| 20260509184923 | 92 | 317 | 5.0 | 9.0 | 0.00 | 0.01 | 0.01 | 45 | 1011.4 |
| 20260509184420 | 92 | 304 | 3.0 | 6.0 | 0.00 | 0.01 | 0.01 | 45 | 1011.7 |
| 20260509183917 | 92 | 304 | 2.0 | 9.0 | 0.00 | 0.01 | 0.01 | 46 | 1011.8 |
| 20260509183411 | 92 | 304 | 2.0 | 8.0 | 0.00 | 0.01 | 0.01 | 45 | 1011.8 |
| 20260509182908 | 93 | 298 | 6.0 | 8.0 | 0.00 | 0.01 | 0.01 | 45 | 1012.0 |
| 20260509182405 | 91 | 215 | 4.0 | 11.0 | 0.00 | 0.01 | 0.01 | 46 | 1012.2 |
| 20260509181902 | 91 | 216 | 4.0 | 9.0 | 0.00 | 0.01 | 0.01 | 47 | 1012.0 |
| 20260509181359 | 91 | 231 | 3.0 | 9.0 | 0.00 | 0.01 | 0.01 | 49 | 1012.0 |
| 20260509180857 | 92 | 238 | 6.0 | 10.0 | 0.00 | 0.01 | 0.01 | 48 | 1012.2 |
| 20260509180352 | 92 | 270 | 4.0 | 8.0 | 0.00 | 0.01 | 0.01 | 49 | 1012.1 |
| 20260509175849 | 92 | 213 | 4.0 | 7.0 | 0.00 | 0.01 | 0.01 | 49 | 1012.4 |
| 20260509175345 | 92 | 217 | 4.0 | 8.0 | 0.00 | 0.01 | 0.01 | 48 | 1012.4 |
| 20260509174841 | 92 | 221 | 9.0 | 11.0 | 0.00 | 0.01 | 0.01 | 47 | 1012.4 |
| 20260509174338 | 92 | 245 | 5.0 | 11.0 | 0.00 | 0.01 | 0.01 | 48 | 1012.3 |
| 20260509173833 | 91 | 213 | 7.0 | 9.0 | 0.00 | 0.01 | 0.01 | 49 | 1012.4 |
| 20260509173329 | 91 | 282 | 2.0 | 9.0 | 0.00 | 0.01 | 0.01 | 50 | 1012.3 |
| 20260509172825 | 90 | 263 | 5.0 | 7.0 | 0.00 | 0.01 | 0.01 | 50 | 1012.3 |
| 20260509172322 | 91 | 198 | 3.0 | 7.0 | 0.00 | 0.01 | 0.01 | 50 | 1012.6 |
| 20260509171818 | 91 | 283 | 4.0 | 8.0 | 0.00 | 0.01 | 0.01 | 49 | 1012.5 |
| 20260509171314 | 90 | 174 | 4.0 | 8.0 | 0.00 | 0.01 | 0.01 | 53 | 1012.6 |
| 20260509170810 | 89 | 251 | 3.0 | 3.0 | 0.00 | 0.01 | 0.01 | 53 | 1012.5 |
| 20260509170306 | 90 | 157 | 6.0 | 11.0 | 0.00 | 0.01 | 0.01 | 51 | 1012.6 |
| 20260509165806 | 89 | 216 | 4.0 | 8.0 | 0.00 | 0.01 | 0.01 | 52 | 1012.6 |
| 20260509165301 | 89 | 229 | 6.0 | 11.0 | 0.00 | 0.01 | 0.01 | 53 | 1012.6 |
| 20260509164757 | 89 | 47 | 2.0 | 8.0 | 0.00 | 0.01 | 0.01 | 52 | 1012.8 |
| 20260509164253 | 89 | 177 | 4.0 | 8.0 | 0.00 | 0.01 | 0.01 | 52 | 1012.7 |
| 20260509163750 | 89 | 124 | 3.0 | 9.0 | 0.00 | 0.01 | 0.01 | 55 | 1012.7 |
| 20260509163246 | 89 | 255 | 2.0 | 8.0 | 0.00 | 0.01 | 0.01 | 54 | 1012.6 |
| 20260509162745 | 89 | 281 | 4.0 | 8.0 | 0.00 | 0.01 | 0.01 | 55 | 1013.1 |
| 20260509162239 | 88 | 226 | 3.0 | 3.0 | 0.00 | 0.01 | 0.01 | 55 | 1013.0 |
| 20260509161735 | 88 | 186 | 4.0 | 10.0 | 0.00 | 0.01 | 0.01 | 55 | 1012.9 |
| 20260509161232 | 88 | 138 | 5.0 | 8.0 | 0.00 | 0.01 | 0.01 | 56 | 1012.9 |